Total_Precipitation_Accumulation
0.14 0.16 0.03 0.01 0.00 0.00 0.00 0.00 0.00 0.00 0.00 0.00 0.00 0.00 0.00 0.00 0.00 0.00 0.00 0.00 0.00 0.01 0.05 0.05 0.02 0.00 0.00 0.00 0.00 0.00 0.00 0.00 0.00 0.00 0.00 0.00 0.00 0.00 0.01 0.01 0.02 0.08 0.17
0.17 0.14 0.05 0.02 0.00 0.00 0.00 0.00 0.00 0.00 0.00 0.00 0.00 0.00 0.00 0.00 0.00 0.00 0.00 0.00 0.00 0.01 0.03 0.02 0.01 0.00 0.00 0.00 0.00 0.00 0.00 0.00 0.01 0.00 0.00 0.00 0.00 0.00 0.00 0.01 0.00 0.02 0.12
0.14 0.08 0.04 0.01 0.00 0.00 0.00 0.00 0.00 0.00 0.00 0.00 0.00 0.00 0.00 0.00 0.00 0.00 0.00 0.00 0.00 0.00 0.01 0.01 0.00 0.00 0.00 0.00 0.00 0.00 0.00 0.00 0.00 0.01 0.01 0.01 0.01 0.00 0.00 0.00 0.01 0.00 0.01
0.03 0.04 0.03 0.02 0.00 0.00 0.00 0.00 0.00 0.00 0.00 0.00 0.00 0.00 0.00 0.00 0.00 0.00 0.00 0.00 0.00 0.00 0.00 0.01 0.00 0.00 0.00 0.00 0.00 0.00 0.00 0.00 0.00 0.00 0.01 0.01 0.01 0.01 0.00 0.00 0.00 0.01 0.00
0.01 0.05 0.11 0.08 0.02 0.02 0.00 0.00 0.00 0.00 0.00 0.00 0.00 0.00 0.00 0.00 0.00 0.00 0.00 0.00 0.00 0.00 0.00 0.00 0.00 0.00 0.00 0.00 0.00 0.00 0.00 0.00 0.00 0.00 0.00 0.00 0.01 0.02 0.01 0.01 0.00 0.01 0.01
0.04 0.04 0.02 0.05 0.03 0.03 0.00 0.00 0.00 0.00 0.00 0.00 0.00 0.00 0.00 0.00 0.00 0.00 0.00 0.00 0.00 0.00 0.00 0.00 0.00 0.00 0.00 0.00 0.00 0.00 0.00 0.00 0.00 0.00 0.00 0.00 0.00 0.01 0.01 0.02 0.01 0.01 0.01
0.12 0.07 0.03 0.03 0.02 0.05 0.01 0.01 0.00 0.00 0.00 0.00 0.00 0.00 0.00 0.00 0.00 0.00 0.00 0.00 0.00 0.00 0.00 0.00 0.01 0.00 0.00 0.00 0.00 0.00 0.00 0.00 0.00 0.00 0.00 0.00 0.01 0.00 0.01 0.01 0.01 0.01 0.01
0.07 0.07 0.05 0.05 0.04 0.05 0.02 0.01 0.00 0.00 0.00 0.00 0.00 0.00 0.00 0.00 0.00 0.00 0.00 0.00 0.00 0.00 0.00 0.00 0.00 0.00 0.00 0.00 0.00 0.00 0.00 0.00 0.00 0.00 0.00 0.00 0.00 0.00 0.01 0.02 0.01 0.01 0.01
0.05 0.06 0.04 0.04 0.04 0.04 0.02 0.01 0.00 0.00 0.00 0.00 0.00 0.00 0.00 0.00 0.00 0.00 0.00 0.00 0.00 0.00 0.00 0.00 0.00 0.00 0.00 0.00 0.00 0.00 0.00 0.00 0.00 0.00 0.00 0.00 0.00 0.00 0.01 0.02 0.02 0.02 0.02
0.10 0.19 0.07 0.03 0.01 0.01 0.04 0.04 0.02 0.02 0.02 0.01 0.01 0.01 0.00 0.03 0.10 0.09 0.01 0.00 0.00 0.00 0.00 0.00 0.00 0.00 0.00 0.00 0.00 0.00 0.00 0.00 0.00 0.00 0.00 0.00 0.00 0.01 0.02 0.03 0.03 0.03 0.03
0.09 0.12 0.09 0.07 0.04 0.07 0.10 0.17 0.13 0.13 0.14 0.21 0.14 0.04 0.02 0.01 0.02 0.13 0.11 0.05 0.01 0.00 0.00 0.00 0.00 0.00 0.00 0.00 0.00 0.00 0.00 0.00 0.00 0.00 0.00 0.00 0.00 0.01 0.04 0.07 0.10 0.09 0.09
0.21 0.25 0.20 0.17 0.19 0.22 0.30 0.37 0.43 0.27 0.19 0.19 0.29 0.16 0.17 0.14 0.08 0.06 0.05 0.06 0.10 0.05 0.02 0.03 0.04 0.03 0.02 0.01 0.00 0.00 0.00 0.00 0.00 0.00 0.00 0.01 0.01 0.02 0.04 0.05 0.10 0.13 0.16
0.31 0.30 0.28 0.26 0.24 0.34 0.41 0.36 0.38 0.33 0.33 0.29 0.31 0.34 0.31 0.21 0.13 0.10 0.14 0.10 0.12 0.11 0.06 0.04 0.03 0.04 0.05 0.05 0.04 0.03 0.01 0.00 0.00 0.00 0.01 0.02 0.05 0.08 0.14 0.18 0.20 0.21 0.19
0.31 0.43 0.40 0.42 0.34 0.25 0.29 0.31 0.33 0.33 0.35 0.40 0.39 0.34 0.30 0.24 0.20 0.20 0.27 0.34 0.31 0.21 0.14 0.07 0.05 0.09 0.09 0.08 0.05 0.03 0.03 0.02 0.02 0.05 0.08 0.10 0.13 0.17 0.19 0.16 0.13 0.10 0.11
0.16 0.22 0.30 0.29 0.28 0.41 0.53 0.58 0.54 0.45 0.43 0.31 0.26 0.24 0.20 0.11 0.16 0.18 0.16 0.19 0.22 0.25 0.16 0.09 0.11 0.10 0.11 0.09 0.07 0.05 0.05 0.09 0.13 0.12 0.12 0.11 0.09 0.10 0.11 0.12 0.06 0.03 0.04
0.38 0.46 0.46 0.49 0.55 0.57 0.59 0.54 0.43 0.34 0.30 0.22 0.17 0.17 0.18 0.16 0.16 0.21 0.21 0.20 0.25 0.31 0.31 0.15 0.09 0.07 0.08 0.10 0.11 0.10 0.08 0.09 0.06 0.04 0.04 0.03 0.02 0.02 0.04 0.06 0.06 0.03 0.05
0.55 0.58 0.60 0.52 0.39 0.31 0.34 0.39 0.42 0.47 0.46 0.39 0.35 0.31 0.26 0.28 0.31 0.29 0.30 0.29 0.26 0.26 0.29 0.16 0.08 0.06 0.08 0.09 0.07 0.06 0.05 0.03 0.03 0.03 0.02 0.02 0.01 0.01 0.02 0.03 0.04 0.05 0.03
1.15 0.90 0.68 0.45 0.30 0.19 0.13 0.13 0.19 0.21 0.24 0.29 0.29 0.30 0.27 0.32 0.39 0.34 0.27 0.20 0.16 0.14 0.16 0.11 0.07 0.06 0.05 0.05 0.05 0.04 0.02 0.02 0.04 0.06 0.05 0.04 0.02 0.02 0.02 0.01 0.02 0.02 0.04
0.49 0.30 0.20 0.15 0.11 0.07 0.05 0.05 0.09 0.20 0.27 0.20 0.18 0.18 0.15 0.14 0.12 0.10 0.10 0.10 0.10 0.12 0.15 0.19 0.14 0.08 0.06 0.03 0.03 0.03 0.04 0.04 0.04 0.03 0.05 0.05 0.05 0.04 0.03 0.04 0.04 0.04 0.02
0.17 0.16 0.15 0.16 0.12 0.06 0.05 0.10 0.12 0.11 0.13 0.13 0.09 0.06 0.07 0.07 0.07 0.07 0.10 0.10 0.10 0.11 0.11 0.11 0.10 0.07 0.04 0.03 0.05 0.07 0.08 0.07 0.07 0.07 0.12 0.13 0.13 0.11 0.07 0.07 0.09 0.08 0.08
0.25 0.21 0.21 0.12 0.12 0.16 0.19 0.20 0.16 0.15 0.08 0.05 0.03 0.03 0.04 0.08 0.09 0.06 0.04 0.04 0.05 0.09 0.12 0.12 0.12 0.10 0.08 0.09 0.11 0.13 0.15 0.12 0.14 0.17 0.17 0.15 0.18 0.18 0.15 0.22 0.27 0.31 0.17
0.13 0.19 0.22 0.24 0.25 0.28 0.37 0.33 0.18 0.08 0.05 0.05 0.04 0.05 0.06 0.11 0.06 0.09 0.10 0.12 0.10 0.12 0.16 0.17 0.15 0.15 0.12 0.14 0.21 0.29 0.32 0.36 0.37 0.34 0.37 0.31 0.24 0.21 0.24 0.25 0.24 0.31 0.26
0.15 0.14 0.20 0.29 0.33 0.31 0.34 0.23 0.20 0.10 0.10 0.11 0.08 0.07 0.06 0.09 0.15 0.06 0.15 0.18 0.18 0.24 0.23 0.20 0.21 0.25 0.34 0.40 0.47 0.56 0.53 0.47 0.39 0.27 0.23 0.17 0.14 0.12 0.11 0.09 0.09 0.11 0.21
0.23 0.26 0.29 0.27 0.19 0.15 0.25 0.24 0.23 0.09 0.06 0.06 0.07 0.07 0.07 0.08 0.15 0.17 0.14 0.20 0.23 0.30 0.38 0.42 0.47 0.56 0.52 0.44 0.37 0.35 0.30 0.29 0.23 0.20 0.17 0.21 0.17 0.15 0.09 0.06 0.03 0.02 0.03
0.29 0.24 0.17 0.16 0.14 0.15 0.31 0.23 0.20 0.10 0.10 0.12 0.09 0.12 0.17 0.14 0.42 0.38 0.24 0.24 0.31 0.34 0.47 0.43 0.34 0.33 0.31 0.26 0.25 0.32 0.38 0.45 0.45 0.32 0.17 0.17 0.11 0.09 0.07 0.05 0.04 0.04 0.03
0.11 0.12 0.12 0.12 0.22 0.13 0.32 0.25 0.22 0.08 0.13 0.15 0.16 0.20 0.40 0.24 0.36 0.25 0.15 0.10 0.23 0.33 0.31 0.37 0.39 0.41 0.42 0.44 0.47 0.47 0.47 0.54 0.45 0.32 0.12 0.18 0.07 0.12 0.20 0.05 0.03 0.06 0.09